Location: ???????
(55.3754°N, 39.3545°E)
Time: 20:37:17
(UTC+00:00)

IDEFIX/ARIANE 42P - Pass Details

Date: 14 April 2026
Orbit: 780 x 797 km, 98.6° (Epoch: 16 May)

Event Time Altitude Azimuth Distance (km) Brightness Sun altitude
Rises 22:37:56 0° 19° (NNE) 3,280 7.3 -23.1°
Reaches altitude 10° 22:40:24 10° 27° (NNE) 2,348 6.1 -23.0°
Maximum altitude 22:45:18 42° 98° (E) 1,115 3.4 -22.7°
Enters shadow 22:47:03 31° 142° (SE) 1,339 3.5 -22.6°
